Погода в Хырдалане

Азербайджан     40°27′06″N   49°44′30″E
темп.,
°C
ветер,
м/с
пор.,
м/с
влажн.,
%
обл.,
%
осадки,
мм/ч
давл.,
гПа
погр.,
м
13 апреля, вт
вт1301:00+11с710760 0.0 1020227
04:00+10с597631 0.0 1020177
07:00+11с6107763 0.0 1021211
10:00+13с66595 0.0 1021246
13:00+16ссв44494 0.0 1020359
16:00+16с44440 0.0 1018326
19:00+14ссз34480 0.0 1017183
22:00+14ссз344824 0.0 101782
14 апреля, ср
ср1401:00+13ссз33515 0.0 101662
04:00+12ссз34670 0.1 101477
07:00+12ссз45680 0.0 1014101
10:00+13ссз78641 0.0 1014275
13:00+15ссз89580 0.0 1013383
16:00+14с79623 0.0 1012330
19:00+13с813700 0.0 1013361
22:00+13с1015694 0.0 1016505
15 апреля, чт
чт1501:00+12с497596 0.0 1016225
04:00+12ссз237348 0.0 101662
07:00+13зсз116644 0.0 101719
10:00+17ю12520 0.0 1017694
13:00+19вюв44440 0.0 10161037
16:00+19юв55460 0.0 1015784
19:00+16юв335339 0.0 1016491
22:00
16 апреля, пт
пт1601:00+15ююз2258100 0.0 1016153
04:00+15ю2357100 0.0 101682
07:00+15ю3455100 0.0 1017123
10:00+17ю4545100 0.0 1017395
13:00+20ю6637100 0.0 1017735
16:00+19ю77390 0.0 1016546
19:00+16ю68460 0.0 1017311
22:00+15ю47515 0.0 1017209
17 апреля, сб
сб1701:00+15ююз48504 0.0 1017198
04:00+14ю610510 0.0 1016206
07:00+14ююз47505 0.0 1017159
10:00+18ю67415 0.0 1017510
13:00+21ю7840100 0.0 1016703
16:00+17сз5652100 0.0 1016368
19:00+13с91560100 0.0 1018485
22:00+14с101668100 0.0 1019585